TAM8078 SBGR-EHAM

Flight info

Callsign TAM8078
Flight time N/A
Altitude 37000
Route VUMEV UZ14 NITLU UZ3 UTLEV UZ88 DOTKU DCT DAKAP UZ51 MOVGA DCT POKSI/N0482F390 DCT NATAS/M084F390 DCT ERNEK DCT 25N030W 30N028W 35N025W DCT BAVAS/M084F410 DCT 43N020W 47N015W DCT TAMEL DCT EVBAK DCT GAPLI/N0486F410 DCT GAJIT DCT ENHAQ M197 REDFA
Aircraft A359/H-SDE2E3GHIJ3J4J5LM1ORWXY/LB1D1

Departure

Time N/A
Airport São Paulo/Guarulhos–Governor André Franco Montoro International Airport (SBGR)

Arrival

Time 2026-05-04 09:17
Airport Amsterdam Airport Schiphol (EHAM)
Time Latitude Longitude Altitude Speed Heading
2026-05-04 08:24 51.03847 -3.52768 40986 ft 497 kts 72°
2026-05-04 08:25 51.06013 -3.42340 40986 ft 497 kts 72°
2026-05-04 08:25 51.08169 -3.31905 40985 ft 497 kts 72°
2026-05-04 08:27 51.16696 -2.90089 40982 ft 497 kts 72°
2026-05-04 08:28 51.18808 -2.79591 40989 ft 498 kts 72°
2026-05-04 08:28 51.20911 -2.69083 40989 ft 498 kts 73°
2026-05-04 08:29 51.23006 -2.58557 40989 ft 498 kts 73°
2026-05-04 08:31 51.31282 -2.16415 40993 ft 498 kts 73°
2026-05-04 08:33 51.40081 -1.74439 41002 ft 499 kts 71°
2026-05-04 08:35 51.48332 -1.36745 41011 ft 499 kts 71°
2026-05-04 08:35 51.50585 -1.26282 41014 ft 499 kts 71°
2026-05-04 08:37 51.57197 -0.88765 41007 ft 499 kts 77°
2026-05-04 08:38 51.58855 -0.77998 41022 ft 500 kts 76°
2026-05-04 08:38 51.60560 -0.67164 41021 ft 500 kts 76°
2026-05-04 08:40 51.67298 -0.23826 41045 ft 500 kts 77°
2026-05-04 08:41 51.69066 -0.13002 41045 ft 500 kts 75°
2026-05-04 08:41 51.70838 -0.02205 41036 ft 500 kts 76°
2026-05-04 08:42 51.72521 0.08632 41014 ft 499 kts 77°
2026-05-04 08:42 51.74186 0.19497 41016 ft 499 kts 77°
2026-05-04 08:43 51.75839 0.30297 41017 ft 499 kts 77°
2026-05-04 08:43 51.77497 0.41168 41016 ft 499 kts 77°
2026-05-04 08:44 51.79147 0.52054 41012 ft 499 kts 77°
2026-05-04 08:46 51.86059 0.95426 40189 ft 496 kts 74°
2026-05-04 08:46 51.87071 1.00777 39421 ft 499 kts 74°
2026-05-04 08:46 51.88085 1.06168 38644 ft 502 kts 74°
2026-05-04 08:46 51.89089 1.11584 37834 ft 503 kts 74°
2026-05-04 08:47 51.90082 1.17013 37148 ft 501 kts 75°
2026-05-04 08:47 51.91058 1.22413 36470 ft 500 kts 75°
2026-05-04 08:47 51.92027 1.27817 35779 ft 500 kts 75°
2026-05-04 08:47 51.92990 1.33225 35072 ft 500 kts 75°
2026-05-04 08:48 51.93950 1.38631 34488 ft 497 kts 75°
2026-05-04 08:48 51.94901 1.43998 33948 ft 494 kts 75°
2026-05-04 08:48 51.95845 1.49336 33340 ft 490 kts 75°
2026-05-04 08:48 51.96779 1.54627 32805 ft 486 kts 76°
2026-05-04 08:49 51.97702 1.59870 32279 ft 482 kts 77°
2026-05-04 08:50 52.02685 1.90818 29118 ft 464 kts 81°
2026-05-04 08:50 52.03461 1.95884 28585 ft 461 kts 80°
2026-05-04 08:51 52.04229 2.00906 28083 ft 457 kts 79°
2026-05-04 08:51 52.04976 2.05786 27581 ft 453 kts 79°
2026-05-04 08:51 52.05732 2.10741 27064 ft 450 kts 79°
2026-05-04 08:51 52.06481 2.15661 26563 ft 447 kts 78°
2026-05-04 08:52 52.07223 2.20549 26042 ft 444 kts 78°
2026-05-04 08:52 52.07959 2.25408 25530 ft 442 kts 78°
2026-05-04 08:52 52.08690 2.30248 25007 ft 439 kts 78°
2026-05-04 08:52 52.09415 2.35068 24496 ft 437 kts 77°
2026-05-04 08:53 52.10134 2.39860 23960 ft 435 kts 77°
2026-05-04 08:54 52.18552 2.68351 21158 ft 411 kts 59°
2026-05-04 08:55 52.19998 2.72348 20792 ft 408 kts 59°
2026-05-04 08:55 52.21429 2.76314 20429 ft 404 kts 59°
2026-05-04 08:55 52.22848 2.80258 20068 ft 402 kts 59°
2026-05-04 08:55 52.24254 2.84173 19708 ft 398 kts 59°
2026-05-04 08:57 52.33777 3.10858 17225 ft 380 kts 59°
2026-05-04 09:01 52.47943 3.63987 12615 ft 356 kts 77°
2026-05-04 09:01 52.48502 3.67927 12295 ft 354 kts 77°
2026-05-04 09:01 52.49057 3.71840 11978 ft 351 kts 77°
2026-05-04 09:01 52.49608 3.75738 11665 ft 349 kts 77°
2026-05-04 09:02 52.50154 3.79606 11375 ft 346 kts 77°
2026-05-04 09:02 52.50686 3.83380 11175 ft 333 kts 77°
2026-05-04 09:02 52.51197 3.87015 10973 ft 321 kts 77°
2026-05-04 09:02 52.51691 3.90533 10717 ft 311 kts 78°
2026-05-04 09:03 52.52160 3.93964 10437 ft 305 kts 79°
2026-05-04 09:03 52.52251 3.97354 10181 ft 300 kts 101°
2026-05-04 09:03 52.51661 4.00589 10001 ft 296 kts 113°
2026-05-04 09:03 52.50891 4.03737 9951 ft 297 kts 114°
2026-05-04 09:04 52.50107 4.06881 9916 ft 298 kts 114°
2026-05-04 09:04 52.49326 4.10032 9497 ft 298 kts 114°
2026-05-04 09:04 52.48554 4.13166 9105 ft 294 kts 114°
2026-05-04 09:04 52.47794 4.16259 8671 ft 291 kts 113°
2026-05-04 09:05 52.47041 4.19323 8261 ft 289 kts 113°
2026-05-04 09:05 52.46294 4.22363 7841 ft 286 kts 113°
2026-05-04 09:05 52.45551 4.25382 7436 ft 284 kts 113°
2026-05-04 09:05 52.44815 4.28373 7039 ft 282 kts 113°
2026-05-04 09:06 52.44083 4.31342 6648 ft 279 kts 112°
2026-05-04 09:07 52.46215 4.51820 3781 ft 268 kts 67°
2026-05-04 09:08 52.46942 4.54621 3404 ft 266 kts 67°
2026-05-04 09:08 52.47658 4.57379 3168 ft 258 kts 67°
2026-05-04 09:08 52.48355 4.60025 3021 ft 248 kts 65°
2026-05-04 09:08 52.49396 4.62173 2831 ft 238 kts 36°
2026-05-04 09:09 52.50870 4.63294 2613 ft 232 kts 16°
2026-05-04 09:09 52.52419 4.63982 2336 ft 230 kts 13°
2026-05-04 09:09 52.53990 4.64441 2058 ft 228 kts
2026-05-04 09:09 52.55564 4.64796 1978 ft 228 kts
2026-05-04 09:10 52.57119 4.65303 1969 ft 229 kts 22°
2026-05-04 09:10 52.58363 4.66871 1989 ft 227 kts 54°
2026-05-04 09:10 52.58902 4.69269 1984 ft 226 kts 87°
2026-05-04 09:10 52.58574 4.71751 1983 ft 224 kts 120°
2026-05-04 09:11 52.57487 4.73531 1980 ft 223 kts 154°
2026-05-04 09:11 52.56022 4.73824 1978 ft 207 kts 194°
2026-05-04 09:11 52.54683 4.73242 1973 ft 192 kts 194°
2026-05-04 09:11 52.53381 4.72835 1984 ft 190 kts 187°
2026-05-04 09:12 52.52072 4.72648 1982 ft 184 kts 183°
2026-05-04 09:12 52.50846 4.72540 1994 ft 171 kts 183°
2026-05-04 09:14 52.43215 4.71833 1429 ft 137 kts 183°
2026-05-04 09:14 52.42280 4.71747 1257 ft 133 kts 183°
2026-05-04 09:14 52.41356 4.71662 1068 ft 133 kts 183°
2026-05-04 09:14 52.40447 4.71579 892 ft 132 kts 183°
2026-05-04 09:15 52.39529 4.71495 721 ft 132 kts 183°
2026-05-04 09:15 52.38614 4.71411 541 ft 132 kts 183°
2026-05-04 09:15 52.37699 4.71332 372 ft 131 kts 182°
2026-05-04 09:15 52.36786 4.71259 189 ft 131 kts 182°
2026-05-04 09:17 52.33499 4.71234 5 ft 19 kts 184°
2026-05-04 09:18 52.33361 4.71220 5 ft 21 kts 184°
2026-05-04 09:18 52.33229 4.71261 5 ft 20 kts 149°
2026-05-04 09:18 52.33130 4.71428 5 ft 22 kts 131°
2026-05-04 09:18 52.33028 4.71615 5 ft 20 kts 132°
2026-05-04 09:19 52.32929 4.71796 5 ft 22 kts 130°
2026-05-04 09:19 52.32848 4.71956 5 ft 17 kts 122°
2026-05-04 09:19 52.32841 4.72157 5 ft 17 kts 85°
2026-05-04 09:19 52.32787 4.72321 5 ft 14 kts 132°
2026-05-04 09:20 52.32725 4.72434 5 ft 15 kts 132°
2026-05-04 09:20 52.32648 4.72569 5 ft 17 kts 141°
2026-05-04 09:20 52.32553 4.72701 5 ft 19 kts 139°
2026-05-04 09:20 52.32450 4.72847 5 ft 22 kts 139°
2026-05-04 09:21 52.32325 4.73022 5 ft 24 kts 139°
2026-05-04 09:21 52.32194 4.73206 5 ft 26 kts 139°
2026-05-04 09:21 52.32078 4.73382 5 ft 22 kts 124°
2026-05-04 09:21 52.32052 4.73628 5 ft 21 kts 93°
2026-05-04 09:22 52.32044 4.73854 5 ft 21 kts 93°
2026-05-04 09:22 52.32035 4.74091 5 ft 15 kts 95°
2026-05-04 09:22 52.31969 4.74193 5 ft 14 kts 178°
2026-05-04 09:22 52.31862 4.74182 5 ft 17 kts 183°
2026-05-04 09:23 52.31737 4.74170 5 ft 19 kts 183°
2026-05-04 09:23 52.31596 4.74157 5 ft 22 kts 183°
2026-05-04 09:23 52.31469 4.74145 5 ft 17 kts 183°
2026-05-04 09:23 52.31393 4.74168 6 ft 9 kts 129°
2026-05-04 09:25 52.31432 4.75632 5 ft 25 kts 85°
2026-05-04 09:25 52.31440 4.75823 5 ft 16 kts 86°
2026-05-04 09:26 52.31426 4.75902 5 ft 6 kts 135°
2026-05-04 09:26 52.31365 4.75929 5 ft 11 kts 177°
2026-05-04 09:26 52.31283 4.75933 5 ft 11 kts 176°
2026-05-04 09:26 52.31224 4.75940 5 ft 1 kts 175°
2026-05-04 09:27 52.31207 4.75953 5 ft 4 kts 144°
2026-05-04 09:27 52.31199 4.76024 5 ft 9 kts 88°
2026-05-04 09:27 52.31200 4.76058 5 ft 5 kts 87°
2026-05-04 09:27 52.31201 4.76087 5 ft 2 kts 88°
2026-05-04 09:28 52.31201 4.76093 5 ft 0 kts 88°
2026-05-04 09:28 52.31201 4.76096 5 ft 0 kts 88°